Starlink 34136

operational
NORAD ID: 64112 Int'l Des: 2025-110 Owner: SPXS Country: US Constellation: starlink
LEOCIRCULAR

关于 Starlink 34136

正在加载描述...

实时位置

正在加载3D地球...

即将过境

高度历史

Altitude vs Time

uPlot chart will show altitude changes over time

两行轨道根数

1 64112U 25110S 25260.85950649 .00032015 00000-0 80622-3 0 9996
2 64112 53.1577 112.9343 0000804 84.4656 275.6440 15.39649570 19379
Epoch: Sep 17, 2025 • Age: 29 hours

当前状态

高度 463.9 km
速度 7.63 km/s
星下点 -48.14°S, 23.71°E
发射日期 May 23, 2025
运行时间 0.3 years
类型 internet

技术详情

分类 Payload
质量 575.00 kg
干质量 530.00 kg
总质量 575.00 kg
长度 0.30 m
直径 4.10 m
跨度 29.00 m
形状 Box + pan
制造商 SPXS
平台类型 Starlink V2MO
阶段状态 In Orbit
所有者/国家 SPXS/US

大型星座

Loading constellations...